Home   Weather   Terrebonne   Past weeks

Flag for Canada Past Weather in Terrebonne, Quebec, Canada — Yesterday and Last 2 Weeks

Now
31 °F

Chilly.


Feels Like: 28 °F
Forecast: 33 / 45 °F
Wind: 3 mph from North

Location: L'Assomption Airport

Current Time: Apr 30, 2017 at 7:09:22 am

Latest Report: Apr 30, 2017 at 6:00 am


Visibility: N/A

Pressure: 30.41 "Hg

Humidity: 73%

Dew Point: 24 °F

Location of TerrebonneLocation

Past Weather in Terrebonne — Graph

°F

Terrebonne Temperature Yesterday

Maximum temperature yesterday: 67 °F (at 2:00 pm)
Minimum temperature yesterday: 41 °F (at 11:00 pm)
Average temperature yesterday: 55 °F

High & Low Weather Summary for the Past Weeks

 TemperatureHumidityPressure
High69 °F (Apr 28, 4:00 pm)100% (Apr 17, 3:00 am)30.53 "Hg (Apr 17, 3:00 am)
Low30 °F (Apr 24, 7:00 am)26% (Apr 15, 2:00 pm)29.64 "Hg (Apr 16, 5:00 pm)
Average48 °F75%30.03 "Hg
* Reported Apr 15 6:00 am — Apr 30 6:00 am, Terrebonne, Weather by CustomWeather, © 2017

Note: Actual official high and low records may vary slightly from our data, if they occured in-between our weather recording intervals... More about our weather records

Advertising

Terrebonne Weather History for the Previous 24 Hours

Scroll right to see more
 ConditionsComfort  
Time TempWeatherWind HumidityBarometerVisibility
6:00 am
Sun, Apr 30
31 °FChilly.3 mph73%30.41 "HgN/A
5:00 am34 °FChilly.6 mph65%30.38 "HgN/A
4:00 am36 °FChilly.7 mph61%30.37 "HgN/A
3:00 am38 °FChilly.7 mph61%30.36 "HgN/A
2:00 am39 °FChilly.7 mph58%30.34 "HgN/A
1:00 am38 °FChilly.9 mph57%30.30 "HgN/A
12:00 am40 °FChilly.9 mph55%30.28 "HgN/A
11:00 pm
Sat, Apr 29
41 °FQuite cool.8 mph51%30.26 "HgN/A
10:00 pm42 °FQuite cool.12 mph51%30.25 "HgN/A
9:00 pm42 °FQuite cool.10 mph51%30.21 "HgN/A
8:00 pm45 °FCool.15 mph47%30.16 "HgN/A
7:00 pm50 °FCool.18 mph41%30.10 "HgN/A
6:00 pm57 °FRefreshingly cool.17 mph39%30.03 "HgN/A
4:00 pm64 °FMild.18 mph30%29.92 "HgN/A
3:00 pm67 °FMild.16 mph29%29.88 "HgN/A
2:00 pm67 °FMild.16 mph38%29.85 "HgN/A
1:00 pm67 °FMild.16 mph45%29.86 "HgN/A
12:00 pm64 °FMild.15 mph51%29.86 "HgN/A
11:00 am63 °FMild.15 mph52%29.88 "HgN/A
10:00 am59 °FCool.13 mph61%29.90 "HgN/A
9:00 am57 °FCool.12 mph66%29.91 "HgN/A
8:00 am56 °FCool.9 mph68%29.90 "HgN/A
7:00 am54 °FCool.2 mph76%29.91 "HgN/A
Weather by CustomWeather, © 2017

See weather overviewHow to use our weather pages